www.pogodaiklimat.ru

ПОГОДА в Чулитне, AK

  • Прогноз погоды в Чулитне
  • Монитор погоды в Чулитне
  • Климат в Чулитне

АРХИВ ПОГОДЫ в Чулитне

Время (UTC), дата Ветер
(напр.,м/с)
 
Видим.   Явления Облачность Т
(С)
Тd
(С)
f
(%)
Тe
(С)
Тes
(С)
Комфортность

P
(гПа)

Po
(гПа)
Тmin
(С)
Tmax
(С)
R
(мм)
SD
(см)
15:51 16.06 В  32 км    5/2 900 м
[средняя] 
+14.0  +9.0  72  +13  +15      962.6         
13:52 17.06   800 м  слабая морось, туман  ?/?  +9.0  +8.0  93  +8  +8      958.7         
15:52 17.06   2 км  дымка  10/10 90 м  +10.0  +9.0  93  +9  +9      958.4         
17:52 17.06   3 км  дымка  8/8 180 м  +12.0  +9.0  82  +11  +13      958.1         
19:54 17.06   6 км  слабая морось, дымка  10/10 300 м  +14.0  +10.0  77  +14  +14      958.1         
21:56 17.06   8 км  дымка  8/8 360 м  +14.0  +12.0  88  +14  +17      958.1         
13:49 18.06   16 км    10/10 540 м  +11.0  +8.0  82  +10  +10      964.2         
15:54 18.06   13 км    10/10 420 м  +11.0  +8.0  82  +10  +10      965.2         
17:46 18.06 З  16 км    10/10 450 м  +11.0  +8.0  82  +9  +9      966.2         
19:54 18.06 С  16 км    10/10 480 м  +12.0  +8.0  76  +11  +11      967.2         
21:53 18.06 Ю  24 км    10/10 600 м  +12.0  +8.0  76  +11  +11      968.1         
23:54 18.06 Ю  24 км    8/8 480 м  +14.0  +6.0  59  +13  +15      968.8         
01:50 19.06 Ю  24 км    8/8 600 м  +14.0  +6.0  59  +13  +14      969.1         
13:46 19.06   24 км    8/8 1200 м  +10.0  +7.0  82  +9  +9      974.6         
17:49 19.06   24 км    10/10 1200 м  +13.0  +6.0  62  +13  +13      975.6         
19:52 19.06 Ю  24 км    8/8 1200 м  +17.0  +10.0  63  +17  +19      975.3         
21:56 19.06 З  24 км    8/8 1500 м  +18.0  +8.0  52  +18  +20      974.9         
23:56 19.06 З  24 км    5/0 2100 м
[средняя] 
+19.0  +9.0  52  +20  +25      974.6         
01:48 20.06 Ю  32 км    2/2 1800 м
[средняя] 
+20.0  +8.0  46  +21  +26  комфорт    974.6         
13:53 20.06   32 км    8/8 1500 м  +12.0  +9.0  82  +11  +12      978.8         
15:49 20.06   48 км    5/0 2100 м
[средняя] 
+16.0  +7.0  55  +16  +18      978.5         
17:47 20.06   32 км    8/8 1800 м
[средняя] 
+17.0  +7.0  52  +17  +19      978.5         
19:53 20.06 Ю  48 км    2/0 4500 м
[средняя] 
+21.0  +10.0  49  +23  +30  комфорт    977.5         
21:56 20.06 З  24 км    2/2 600 м
[средняя] 
+23.0  +8.0  38  +24  +33  комфорт    976.2         
23:51 20.06 ЮЗ  32 км    2/2 1800 м
[средняя] 
+23.0  +8.0  38  +24  +32  комфорт    975.6         
01:49 21.06 Ю  32 км    8/8 750 м
[средняя] 
+23.0  +8.0  38  +24  +25  комфорт             
13:56 21.06   32 км    2/2 1500 м
[средняя] 
+11.0  +9.0  87  +10  +11      974.6         
15:59 21.06   48 км    ясно  +16.0  +8.0  59  +16  +20      973.6         
17:47 21.06 З  48 км    ясно  +18.0  +10.0  59  +18  +25      972.3         
19:51 21.06 З  48 км    2/2 900 м  +21.0  +11.0  53  +23  +31  комфорт    970.7         
21:52 21.06 Ю  48 км    2/2 900 м  +23.0  +11.0  47  +25  +33  комфорт    969.8         
23:52 21.06 ЮЗ  48 км    2/2 900 м  +24.0  +10.0  41  +25  +30  комфорт    968.1         
01:54 22.06 Ю  24 км    5/5 1200 м  +23.0  +9.0  41  +24  +27  комфорт    967.2         
13:52 22.06   32 км    5/5 150 м  +12.0  +10.0  88  +11  +12      969.8         
15:59 22.06   32 км    2/0 2400 м
[средняя] 
+14.0  +8.0  67  +14  +17      969.8         
17:56 22.06 ЮЗ  32 км    2/0 3000 м
[средняя] 
+20.0  +7.0  43  +21  +26  комфорт    969.1         
13:46 23.06   48 км    2/2 1800 м
[средняя] 
+11.0  +10.0  94  +10  +11      969.8         
15:48 23.06   32 км    2/0 3000 м
[средняя] 
+17.0  +12.0  72  +17  +20      969.8         
17:46 23.06   32 км    5/0 2400 м
[средняя] 
+19.0  +11.0  60  +20  +26      969.4         
13:49 24.06   24 км    8/8 900 м  +14.0  +8.0  67  +14  +14      970.4         
15:53 24.06   24 км    8/8 1200 м  +17.0  +10.0  63  +17  +18      970.4         
17:49 24.06 Ю  24 км    8/8 600 м  +18.0  +11.0  64  +18  +20      970.4         
20:49 24.06 Ю  24 км    8/8 600 м  +21.0  +13.0  60  +24  +26  комфорт    969.8         
21:53 24.06 З  24 км    8/8 600 м  +23.0  +10.0  44  +25  +27  комфорт    969.1         
13:53 25.06   32 км    8/8 750 м  +14.0  +12.0  88  +14  +14      971.0         
15:49 25.06 Ю  32 км    8/8 750 м  +15.0  +12.0  82  +14  +15      971.4         
17:52 25.06   24 км    8/8 180 м  +16.0  +11.0  72  +16  +18      971.4         
19:52 25.06 З  24 км    8/8 840 м  +20.0  +12.0  60  +23  +25  комфорт    970.7         

 

Местоположение метеостанции Chulitna Airport: широта 62.8800 долгота -149.8300 высота над уровнем моря 381 м.

В архиве по умолчанию представлена погода в Чулитне за последние 1-2 суток. Обновление информации о фактической погоде в базе происходит ежечасно! Архивные данные за месяц целиком и за предыдущие месяцы Вы можете получить, выбрав интересующий диапазон дат из раскрывающегося списка и нажав кнопку "Ввод!".

Внимание! Архив погоды МЕТАР в базе сайта хранится не более 60 дней. Нет смысла пытаться выбрать более раннюю дату.

Внимание! Время в таблицах - всемирное. Для получения местного времени необходимо прибавить поправку, которая в Чулитне равна -9 ч.

Ветер - указаны скорость ветра в м/с и направление, откуда дует ветер: С - северный, СВ - северо-восточный, В - восточный, ЮВ - юго-восточный, Ю - южный, ЮЗ - юго-западный, З - западный, СЗ - северо-западный.
Видимость - горизонтальная дальность видимости в метрах или километрах. При видимости от 1 до 10 км при отсутствии осадков обычно наблюдается дымка, при ухудшении видимости до 1 км и менее - туман. В сухую погоду видимость может ухудшаться дымом, пылью или мглою.
Атмосферные явления - указаны явления, наблюдавшиеся в указанный момент времени.
Облачность - указаны через наклонную черту верхняя и нижняя облачность в баллах и высота нижней границы облаков в метрах. Внимание: облачность, как и прочие метеорологические величины в США измеряются автоматическими метеостанциями. Указанные значения в баллах носят условный характер и показывают процент времени, в течение которого, в среднем, лазерный луч высотомера отражался от облаков обратно.
T - Температура воздуха - температура, измеренная на высоте 2 м над землей.
Td - Температура точки росы - температура, при понижении до которой содержащийся в воздухе водяной пар достигнет насыщения.
f - Относительная влажность воздуха - влажноcть воздуха, измеренная на высоте 2 м над землей.
Te - Эффективная температура - температура, которую ощущает одетый по сезону человек в тени. Характеристика душности погоды. При расчете учитывается влияние влажности воздуха и скорости ветра на теплоощущения человека.
Tes - Эффективная температура на солнце - температура, которую ощущает человек, с поправкой на солнечный нагрев. Характеристика знойности погоды. Зависит от высоты солнца над горизонтом, облачности и скорости ветра. Ночью, в пасмурную погоду, а также при ветре 12 м/с и более поправка равна нулю.
P - Атмосферное давление - приведенное к уровню моря атмосферное давление.
Po - Атмосферное давление - измеренное на уровне метеостанции атмосферное давление.
Tmin - Минимальная температура - минимум температуры воздуха на высоте 2 м над землей.
Tmax - Максимальная температура - максимум температуры воздуха на высоте 2 м над землей.
R - Количество осадков - Количество выпавших осадков за 3 или 6 часов, мм.
SD - Снежный покров - Высота снежного покрова, см.